Theta_e
329 330 329 331 334 333 333 334 331 331 329 324 321 318 315 315 314 312 312 312 312 312 314 316 318 321 322 322 323 322 320 319 320 321 320 320 321 322 324 325 324 323 323 324 326 326 325 326 327 327 327 327 327 327 327 327 328 328 328 328 328 329 328 328 328 327 327 328 327 326 325 326 328 327 327 327 326 327 327 326 327 327 327 328 328
330 333 332 331 333 333 332 333 332 331 329 322 319 317 314 314 313 313 312 311 313 315 318 319 319 320 321 320 320 320 321 320 317 317 316 317 320 321 322 324 324 324 323 324 324 324 324 325 325 326 326 326 327 327 327 327 327 327 328 328 328 328 329 328 327 327 328 328 327 326 325 324 325 326 326 327 327 326 327 326 326 327 327 327 327
330 332 332 331 332 332 331 333 332 331 329 322 319 317 314 313 313 313 312 311 314 318 321 321 321 321 321 320 320 319 321 320 314 310 310 310 311 313 317 321 321 321 322 323 323 323 323 323 322 323 325 326 326 326 326 326 327 327 328 328 328 328 328 328 328 327 327 327 326 327 326 325 325 325 324 324 324 325 326 326 326 326 327 326 326
329 330 332 331 330 330 331 333 332 331 329 325 322 319 315 313 313 312 312 312 316 320 321 321 321 322 322 322 321 321 320 317 310 307 308 307 308 311 317 322 322 321 321 321 322 321 322 322 320 320 324 326 325 326 326 326 326 327 327 328 327 327 327 327 327 327 327 326 326 326 326 326 325 326 325 323 323 323 323 324 325 327 327 327 326
329 329 330 330 329 330 331 332 332 332 331 329 325 322 317 314 313 312 311 312 316 319 318 318 320 321 322 322 322 321 319 312 307 309 309 307 307 309 313 318 321 323 321 320 320 321 322 322 321 320 323 325 325 325 325 325 325 325 326 326 326 326 327 327 327 327 327 327 327 326 326 326 326 326 325 324 324 323 322 322 323 324 325 325 326
328 328 329 329 328 330 331 331 331 331 332 331 328 325 320 316 314 312 311 312 315 316 314 315 317 316 317 317 315 315 313 309 308 310 308 308 307 307 308 311 315 318 319 319 320 320 322 322 322 321 323 324 324 323 324 324 325 324 325 326 326 326 327 328 327 327 328 327 327 327 326 326 326 325 325 325 326 325 324 324 322 323 323 323 323
328 328 328 329 328 328 330 330 330 330 331 333 331 329 324 319 315 313 311 312 313 313 312 312 313 312 311 311 309 308 309 309 309 309 307 308 307 307 307 308 310 313 315 317 320 320 321 322 322 321 322 323 323 323 323 323 324 324 324 324 325 325 326 327 327 327 327 327 327 326 326 325 325 325 324 325 326 326 326 326 325 325 325 324 322
328 329 328 328 328 327 329 329 329 329 331 333 333 332 328 322 318 315 312 311 312 313 312 311 310 309 308 308 308 308 309 309 309 308 307 308 308 308 307 307 310 312 312 313 317 320 321 321 321 321 322 322 322 323 323 323 323 322 322 321 321 324 326 326 326 326 326 327 327 326 325 325 325 324 324 324 324 325 325 326 326 326 325 324 323
329 328 328 328 328 327 327 328 328 328 329 330 332 333 331 328 324 319 314 311 312 312 311 311 310 309 309 309 310 310 309 308 308 308 307 307 308 307 307 307 308 309 308 307 311 317 320 320 319 320 321 320 319 320 320 321 322 322 322 319 317 321 325 325 325 325 326 326 325 325 325 325 325 324 324 324 323 323 324 325 324 323 323 323 323
329 328 328 327 327 326 325 326 326 327 327 327 330 333 332 331 326 322 318 313 311 313 311 311 310 309 312 312 311 311 309 308 308 308 307 308 307 307 308 308 307 307 307 306 306 310 314 318 319 318 317 313 310 310 310 311 313 314 315 313 310 315 322 323 323 323 324 324 324 323 324 324 324 323 323 323 324 323 323 323 321 318 317 320 323
329 328 328 328 327 327 327 327 326 326 326 325 328 330 331 330 323 322 325 318 311 312 311 310 310 311 314 315 312 309 308 309 308 308 308 308 308 308 307 307 308 307 307 307 306 305 307 311 314 313 309 307 305 306 306 305 306 306 306 306 305 309 316 319 320 319 320 322 322 322 322 322 322 323 323 323 323 322 322 322 320 317 315 318 322
327 328 328 329 329 329 328 328 328 327 326 325 326 328 330 331 323 321 327 322 313 311 311 311 310 312 315 316 314 311 308 309 309 309 308 308 308 308 308 308 308 308 307 307 307 306 306 307 308 307 306 306 306 306 306 306 306 306 306 306 305 306 309 311 311 311 312 315 319 320 320 320 320 321 321 321 321 322 322 321 320 317 313 315 318
324 324 326 327 329 330 329 328 328 328 327 326 326 327 328 329 324 320 326 325 317 311 311 311 310 313 316 316 316 313 309 309 309 309 308 309 309 308 308 308 307 308 307 307 307 306 306 306 306 306 306 306 306 306 306 306 306 306 306 306 306 306 306 306 306 306 306 308 311 312 313 313 313 313 311 311 313 315 315 315 314 312 310 312 315
325 323 324 324 325 327 328 328 328 327 328 327 327 328 327 326 324 322 326 327 322 313 311 311 310 313 316 317 316 313 309 309 309 309 309 309 309 309 309 308 308 308 308 307 307 307 307 307 306 306 306 306 306 306 306 306 306 306 306 306 306 306 306 306 306 305 305 306 306 307 307 306 306 306 306 305 306 307 307 307 307 308 308 310 312
324 322 321 323 324 326 328 329 329 328 328 328 327 326 326 324 324 325 326 328 326 317 311 310 310 313 317 318 317 314 310 309 309 309 309 309 309 309 309 309 309 308 308 308 308 307 307 307 307 306 306 306 306 306 306 306 306 306 306 306 306 305 306 306 306 305 305 305 305 305 306 305 304 304 304 304 304 304 305 305 305 307 308 310 312
326 324 322 323 326 327 328 329 330 329 329 330 328 326 325 324 325 325 324 326 327 322 315 313 310 312 318 319 319 317 311 310 310 309 309 309 309 310 310 310 310 309 309 309 308 308 308 307 307 307 307 306 306 306 306 306 306 306 306 306 305 305 305 305 305 305 305 304 304 305 304 304 303 303 303 303 303 303 303 303 303 305 306 307 310
327 326 325 325 327 327 328 329 331 330 330 330 329 328 329 327 325 323 322 325 327 323 320 320 316 314 319 320 320 319 313 311 312 312 311 311 312 311 310 310 310 310 310 310 309 309 308 308 308 307 307 307 307 307 306 306 306 306 306 306 305 305 305 305 305 304 304 304 304 304 303 303 303 303 303 303 303 303 302 302 303 303 304 304 304
327 326 326 326 326 326 327 328 329 329 329 330 329 328 329 328 326 324 323 325 326 323 319 320 319 316 318 320 321 320 316 313 314 316 315 315 316 314 313 312 310 309 310 310 310 309 309 309 309 309 308 308 308 307 307 307 307 307 306 306 306 305 305 305 305 305 304 304 304 304 303 304 303 303 303 303 303 303 303 303 303 303 303 303 303
326 326 326 326 326 325 325 325 326 327 327 327 328 328 327 326 327 326 325 325 326 324 319 317 317 314 314 319 321 320 318 315 316 319 318 317 317 316 315 314 312 310 310 310 311 311 310 310 310 310 310 309 309 308 308 308 308 307 307 307 306 306 306 305 305 305 305 305 304 304 304 305 305 305 305 304 304 304 304 305 306 306 306 306 305
325 325 326 326 325 326 325 324 325 326 325 326 326 326 326 326 327 327 327 326 326 325 321 318 315 312 314 320 321 320 319 317 317 319 319 319 319 318 317 316 315 314 314 314 314 313 313 313 312 312 311 311 311 310 309 309 308 308 308 308 307 307 307 306 306 305 305 305 305 305 305 305 305 305 306 305 305 305 305 306 307 308 308 308 307
323 324 325 325 325 325 325 325 325 325 325 325 325 325 325 325 326 326 327 327 326 324 323 319 316 316 319 322 322 321 322 321 319 319 320 320 320 319 319 318 317 317 317 317 317 317 316 317 317 316 314 313 313 312 312 311 310 309 309 308 308 308 308 307 307 307 306 306 306 306 306 306 306 306 306 306 306 305 305 306 306 307 308 308 308
322 321 323 324 325 325 324 325 325 325 325 325 325 325 324 325 326 326 326 326 325 324 322 321 319 321 324 323 323 322 323 323 323 322 322 322 322 321 320 319 319 319 319 319 318 318 318 319 319 319 318 317 316 315 315 314 313 312 311 310 309 309 309 308 308 307 307 307 306 307 307 306 306 306 305 305 305 305 305 305 305 305 307 307 307
322 321 321 322 322 323 324 325 324 325 325 324 325 325 325 325 326 326 326 325 324 322 321 321 322 323 324 324 324 324 323 324 324 323 322 322 322 322 321 320 320 319 319 319 318 318 319 320 320 320 320 319 318 318 317 317 316 315 314 313 312 311 310 309 309 308 308 307 307 307 307 307 306 306 305 305 305 305 305 304 304 304 304 304 304
321 321 320 318 317 318 322 324 324 324 325 324 324 324 325 325 325 325 325 324 323 321 320 322 323 324 324 325 324 324 324 323 322 322 323 323 322 322 322 322 321 320 319 319 318 319 319 320 320 321 321 320 319 319 318 318 318 317 317 316 315 313 312 311 310 309 308 308 308 308 307 307 307 307 306 306 305 305 305 304 304 304 303 303 303
318 318 317 316 314 313 315 318 319 321 323 324 324 324 325 325 325 324 324 323 323 322 322 323 323 323 323 322 322 322 322 320 319 318 320 321 321 321 321 322 321 320 319 319 319 318 319 319 319 320 320 320 320 319 319 319 319 318 318 317 316 315 314 313 312 311 309 309 308 308 307 307 307 307 307 306 305 304 304 304 303 303 303 303 302
315 316 316 316 315 313 312 313 313 314 319 323 324 324 325 325 325 324 324 323 323 322 323 323 323 323 321 320 320 321 321 319 317 317 318 319 320 319 318 319 319 318 318 318 318 317 318 318 318 319 320 320 320 320 319 319 319 319 318 318 317 317 316 315 314 312 311 310 309 308 308 307 307 307 307 307 306 304 303 303 303 303 303 303 302
314 315 315 315 314 314 313 313 312 312 314 317 318 319 321 322 323 324 323 323 323 322 323 323 323 322 320 318 318 320 321 320 318 318 318 318 318 317 317 317 317 317 317 316 317 316 316 316 316 317 318 319 320 319 319 319 319 318 318 318 318 317 316 316 315 314 313 311 311 309 309 308 308 308 308 308 307 305 304 303 302 302 302 302 302
314 313 314 313 313 313 313 313 313 313 313 312 312 312 313 314 317 320 321 320 321 321 321 321 321 321 320 319 320 321 322 321 320 319 318 317 316 317 318 319 319 318 317 317 317 317 317 317 317 317 317 318 319 319 319 319 319 318 318 318 318 317 317 316 315 315 314 313 312 311 311 310 309 309 309 308 307 306 304 303 302 302 302 302 301
315 314 314 313 312 313 313 313 313 313 313 313 312 311 310 309 310 312 313 313 315 317 318 318 319 319 318 318 318 318 317 316 315 314 312 312 312 314 317 318 318 317 316 315 315 315 316 316 316 316 316 317 318 318 319 319 319 318 317 318 318 317 317 317 316 315 314 314 314 313 312 311 310 309 309 309 308 306 304 303 302 302 301 301 301
315 315 314 314 313 312 312 312 312 312 312 312 312 311 311 309 308 308 307 307 309 311 312 313 313 312 310 309 309 309 308 308 308 308 308 309 310 312 313 315 314 314 314 314 315 316 317 317 317 316 316 316 318 319 319 319 319 318 317 318 318 318 317 316 316 315 315 314 314 313 313 312 310 310 309 309 307 305 303 303 302 301 301 301 301
314 315 315 314 313 312 311 311 311 311 311 311 311 311 311 309 309 308 308 308 309 308 309 310 310 308 306 305 307 307 307 308 308 309 310 311 312 313 315 316 317 317 316 317 317 318 318 317 317 318 318 318 318 319 319 319 319 318 318 318 318 318 317 316 316 315 315 315 314 313 313 311 311 310 309 308 307 304 303 302 301 301 301 301 301
313 314 315 314 313 312 311 311 311 310 311 311 310 310 310 309 309 308 308 308 307 306 307 308 308 306 305 305 306 308 308 308 308 309 309 310 311 312 314 315 316 317 317 317 317 317 317 317 317 317 318 317 317 318 319 319 319 318 317 317 317 318 318 317 316 316 315 315 314 313 311 311 310 310 308 307 306 304 302 301 301 301 301 302 301
313 314 314 314 313 312 311 311 310 310 310 309 308 309 310 309 308 308 308 307 306 305 306 307 306 306 306 306 306 307 306 307 307 308 308 309 309 310 311 313 314 315 316 316 317 317 317 317 315 314 315 315 316 317 319 319 319 318 317 317 317 318 319 318 316 316 315 314 313 311 310 310 309 308 307 306 305 304 302 301 301 302 302 302 301
312 313 313 312 311 312 311 310 310 309 309 309 307 308 309 308 308 307 307 307 307 307 307 307 307 307 307 307 306 306 307 307 307 307 308 308 308 308 309 309 311 313 314 316 316 316 316 316 314 312 313 313 314 315 316 317 318 318 318 318 318 318 318 317 316 315 314 313 312 311 309 309 308 307 305 304 302 302 301 301 301 301 301 301 300
311 311 311 311 311 311 311 310 310 309 309 308 307 307 307 307 308 308 307 307 307 307 307 308 307 307 306 306 306 306 306 307 307 307 306 305 305 305 306 307 308 309 311 312 313 314 315 315 315 314 313 312 310 311 311 312 314 316 318 318 318 317 316 315 314 313 312 311 310 309 308 307 306 305 303 301 301 301 301 300 300 300 300 299 299
309 310 310 310 310 310 310 309 309 309 308 308 307 307 307 307 308 308 308 307 307 306 307 307 307 307 306 306 306 306 307 306 305 305 304 303 303 303 304 304 304 305 307 310 312 313 313 314 314 315 315 313 310 308 308 310 312 315 317 317 317 316 315 313 312 312 312 310 308 308 307 306 305 304 303 302 301 301 301 300 300 300 299 298 298
307 308 308 309 309 309 309 308 308 307 307 307 307 307 307 307 307 307 307 307 307 307 307 307 307 306 307 306 306 307 308 306 305 304 304 304 303 302 302 301 301 302 304 307 310 312 312 312 313 314 314 314 312 311 311 314 315 316 317 316 316 314 313 312 311 310 310 308 307 306 306 305 304 304 303 302 302 301 300 300 300 299 299 298 297
305 306 306 307 307 307 307 307 307 306 306 306 306 306 305 306 306 307 307 307 307 307 307 307 307 307 307 307 307 307 307 307 307 306 305 304 303 302 302 301 300 300 301 305 308 310 311 312 312 312 313 313 313 312 313 315 316 316 316 315 314 313 312 311 310 309 307 306 305 305 305 305 304 303 302 302 301 300 300 300 299 298 298 297 297
305 305 305 304 305 305 305 306 306 306 306 305 305 305 304 305 305 306 306 306 306 306 306 307 307 307 307 307 306 306 307 307 308 306 305 303 303 303 303 302 301 300 300 303 307 309 311 312 312 312 312 312 313 312 313 314 315 315 315 315 313 312 311 309 308 307 306 305 305 306 305 304 303 301 301 301 300 300 299 298 298 297 297 296 296
304 304 304 304 304 304 304 304 304 305 305 305 304 304 305 305 305 305 305 305 305 306 306 306 307 307 306 306 306 306 306 306 305 305 304 304 304 304 304 304 302 300 299 302 306 309 310 311 311 311 311 312 312 312 312 313 314 314 314 314 314 312 311 309 309 308 307 306 305 304 303 302 301 301 300 300 299 298 298 297 297 296 296 296 296
304 304 304 304 304 304 304 304 304 304 304 304 304 304 304 304 304 304 304 304 305 305 305 305 306 306 306 306 306 305 305 305 305 305 306 306 306 306 305 305 303 301 300 302 306 308 310 310 311 311 311 311 312 311 311 312 313 313 313 313 313 312 311 309 309 308 306 304 304 303 302 301 301 299 298 298 297 297 296 296 296 296 296 295 295
303 303 303 303 303 303 304 303 303 303 303 303 303 303 303 303 303 304 304 304 305 305 305 305 305 305 306 306 305 305 305 305 305 305 306 306 306 306 305 305 304 303 303 305 308 309 310 310 310 310 311 311 311 311 311 310 310 311 312 312 311 310 310 309 308 306 304 303 302 302 301 299 298 297 296 296 295 296 295 295 295 295 295 294 294
301 302 302 302 302 302 302 303 303 303 303 303 303 303 303 303 303 303 303 303 303 304 305 305 306 306 306 306 306 306 305 306 305 305 305 305 305 305 305 305 305 305 306 308 309 310 310 311 310 310 311 311 311 311 310 308 307 308 309 310 309 309 308 307 306 304 302 302 301 300 299 297 295 294 294 294 295 295 295 294 294 294 294 294 293
300 300 300 300 300 300 301 301 302 302 302 302 302 302 302 302 302 302 302 302 302 303 304 305 305 305 305 305 305 305 305 305 305 305 304 304 305 305 305 306 307 306 306 308 309 310 310 310 310 310 310 310 310 309 308 307 306 307 307 307 307 306 306 305 304 303 302 301 300 298 296 294 294 293 294 294 294 294 294 294 294 294 293 293 293
299 300 300 300 300 300 300 301 301 301 301 301 301 302 302 302 302 302 302 302 302 303 303 304 304 304 304 305 305 304 304 304 304 304 305 305 305 306 306 307 308 307 307 308 309 309 310 310 310 310 310 309 308 307 306 305 306 306 306 306 304 304 304 303 303 303 302 300 297 295 294 293 293 293 294 294 294 294 294 294 293 293 293 292 292
299 299 299 300 300 300 300 300 300 300 301 301 301 301 301 302 302 302 302 302 302 302 303 303 303 303 304 304 304 304 304 304 305 305 305 305 306 307 307 308 308 307 307 307 307 308 309 310 310 310 309 308 306 305 304 305 305 304 303 303 302 302 302 302 301 300 299 296 294 293 293 293 293 293 294 294 294 294 294 293 293 293 292 292 292
299 299 300 300 299 299 300 300 300 300 300 301 301 301 301 301 301 302 302 302 302 302 302 302 303 303 304 304 305 304 304 304 304 304 305 305 306 307 308 308 308 307 307 306 306 307 308 309 309 308 307 306 305 304 303 303 302 301 301 301 301 301 300 298 297 296 295 293 292 292 292 293 293 294 294 294 294 293 293 293 293 292 292 292 291
299 300 299 299 299 300 300 300 300 300 300 300 300 300 300 301 301 301 301 302 302 302 302 302 302 302 303 304 304 304 304 304 304 304 305 306 307 307 307 307 307 307 306 306 306 307 307 307 307 307 306 304 303 302 301 301 300 300 300 299 298 297 296 295 294 294 293 292 292 292 292 293 294 294 294 294 293 293 293 292 292 292 291 291 290
299 299 299 299 299 300 300 300 300 300 300 300 300 300 300 300 300 300 301 301 301 301 302 302 302 302 302 302 302 303 303 303 304 305 305 306 306 306 306 306 305 305 305 305 306 306 306 306 306 305 305 304 301 300 300 300 299 298 297 296 295 294 293 293 293 292 292 291 292 292 293 293 293 293 293 293 293 292 292 291 291 290 290 290 289
299 299 299 299 299 299 300 300 300 300 300 300 300 300 300 300 300 300 300 300 300 300 300 300 301 302 302 302 302 302 302 303 304 304 305 305 305 305 305 304 305 305 306 306 305 305 305 305 305 305 304 303 301 300 299 298 297 295 294 294 293 293 292 292 291 291 291 291 292 293 293 293 293 292 292 291 291 291 290 290 290 290 289 289 289
299 299 299 299 299 299 299 299 299 300 300 300 300 300 300 300 300 300 300 300 301 301 301 301 301 302 302 303 303 303 303 303 304 304 304 304 304 304 304 305 306 306 305 305 304 305 305 305 304 303 302 300 299 299 298 297 296 294 293 293 292 291 292 292 292 291 292 292 293 293 293 293 292 292 291 291 290 290 290 290 290 289 289 289 289
Wind_Speed
25 25 28 28 29 29 24 23 25 23 22 24 24 24 24 22 22 20 19 18 16 15 14 14 14 16 15 13 11 8 6 7 7 7 6 5 6 7 9 8 6 6 6 5 5 4 4 4 5 6 7 9 10 10 10 11 12 14 16 15 14 13 12 11 11 11 11 11 10 10 11 12 12 12 12 14 18 19 17 16 15 10 7 6 8
30 29 29 29 30 30 26 24 26 25 23 25 25 25 24 22 21 20 19 18 17 15 13 12 12 13 14 14 13 10 9 7 5 6 7 7 8 8 10 11 10 8 6 6 6 5 5 4 3 3 4 6 8 8 9 11 12 13 16 17 16 14 13 12 12 11 11 11 11 10 9 9 9 9 11 13 15 17 17 18 18 16 13 9 8
33 33 31 30 32 32 27 25 27 26 24 25 25 24 23 22 20 19 19 18 16 14 13 12 13 14 13 13 12 10 10 7 5 7 8 8 10 10 11 13 12 11 10 10 8 6 5 4 3 2 3 4 6 6 7 8 9 10 12 14 15 13 14 15 14 12 11 11 11 10 8 8 8 8 11 13 16 16 16 16 17 17 16 14 12
35 36 34 32 33 33 29 27 27 25 25 25 25 24 24 22 20 19 18 18 17 16 15 14 15 16 14 13 11 9 9 7 6 10 11 11 11 12 13 14 13 14 13 12 10 8 6 4 3 3 2 3 4 4 4 3 3 5 7 10 12 12 13 14 14 13 13 12 10 9 8 7 6 7 8 9 13 14 13 13 14 15 15 16 16
35 37 35 32 33 34 31 30 27 25 25 25 25 24 24 23 20 19 18 18 18 18 16 14 15 17 17 15 13 11 11 8 9 13 12 12 13 12 12 13 15 15 14 13 13 11 9 6 5 3 4 5 7 8 7 6 4 3 4 6 8 10 10 10 12 13 13 12 9 7 7 6 6 6 5 6 8 9 9 9 11 13 13 15 16
34 34 34 32 32 33 32 32 30 27 26 25 25 24 23 23 21 19 18 18 18 18 16 14 15 15 16 16 15 14 14 12 11 13 12 12 13 12 12 12 13 14 13 14 15 13 10 9 9 8 6 7 8 8 9 9 8 6 6 3 3 6 7 7 8 9 10 10 10 9 7 6 6 5 4 5 6 7 7 6 8 9 10 10 11
33 33 34 33 32 32 32 33 32 30 28 26 25 24 23 23 22 20 19 19 19 17 16 16 15 14 14 15 15 16 17 15 12 12 12 11 11 12 13 12 12 12 12 15 16 13 12 11 11 10 8 7 6 6 7 7 6 6 7 5 4 4 5 4 5 6 7 7 8 11 9 6 5 3 3 4 4 5 6 5 5 5 5 6 8
34 34 34 34 33 32 32 33 32 30 29 28 27 25 24 24 22 21 20 20 19 17 17 16 15 15 16 16 16 16 15 15 14 12 11 10 11 12 12 12 12 11 11 13 14 15 14 13 12 11 10 8 7 6 4 3 3 3 3 3 4 4 6 6 5 5 5 5 5 7 7 5 4 3 3 3 4 4 3 3 3 4 4 5 6
31 31 32 32 31 32 31 31 31 29 29 29 29 28 25 24 21 20 20 21 20 18 18 17 16 17 18 17 17 16 15 15 15 13 12 10 11 12 12 12 11 11 11 10 11 14 15 13 12 11 9 7 6 7 6 4 4 3 3 1 1 3 7 8 8 8 7 6 6 6 6 6 5 4 3 3 4 2 2 3 2 2 3 3 4
29 28 30 30 30 30 29 29 29 29 29 29 30 30 28 26 22 20 21 23 22 20 19 18 18 18 17 16 16 17 17 16 15 14 13 11 12 12 11 11 12 12 11 11 10 11 13 13 11 8 7 7 7 7 6 6 5 5 4 3 3 5 6 7 8 9 8 8 8 8 8 8 7 5 5 5 4 4 4 4 1 2 3 4 2
27 28 29 29 27 26 27 27 29 29 29 29 31 32 31 29 26 23 24 27 25 23 21 20 20 19 17 15 16 17 17 17 15 14 13 12 12 12 12 12 12 12 12 11 11 11 11 11 9 6 7 11 12 11 10 9 8 7 5 5 5 6 6 5 5 6 7 8 8 8 8 8 7 6 5 6 5 4 4 4 3 2 1 4 4
19 21 24 27 26 25 25 25 28 30 29 29 31 32 32 31 29 27 29 31 28 25 24 22 22 20 18 16 16 16 16 16 15 14 14 13 13 12 12 12 11 11 11 11 11 11 11 11 10 9 10 11 11 11 11 11 10 9 9 9 8 7 6 5 3 4 6 8 8 7 7 7 7 6 6 6 7 6 6 6 6 5 4 2 3
18 16 15 18 20 23 25 24 25 28 28 28 30 33 33 32 30 30 33 34 31 28 26 24 23 22 20 18 17 16 16 16 15 13 13 12 13 13 13 12 11 11 10 10 10 10 10 11 11 10 10 10 9 9 9 10 10 9 8 8 9 8 7 6 5 5 5 6 6 6 6 6 6 7 7 7 8 9 9 8 9 9 9 7 3
13 11 10 11 11 13 19 23 25 27 27 26 28 32 32 31 32 32 33 35 34 31 28 26 24 23 21 19 18 16 16 16 15 13 13 12 12 13 13 12 12 11 10 10 9 9 9 9 9 9 9 8 8 7 7 9 9 8 8 7 7 7 7 6 6 6 5 4 3 2 3 4 4 3 3 3 3 5 6 5 6 6 7 7 5
10 6 5 7 7 8 9 14 19 25 27 25 26 29 29 29 33 35 34 33 34 32 30 27 25 24 23 20 18 15 15 16 15 13 12 11 10 11 11 12 11 11 10 10 9 8 8 8 8 8 7 7 6 5 5 7 7 7 7 7 6 7 6 6 6 6 5 4 4 3 3 4 4 4 3 2 2 1 1 2 2 2 3 4 6
9 8 7 5 7 7 5 5 9 19 26 26 25 26 25 25 29 33 34 32 33 33 30 26 24 24 24 21 18 16 14 15 14 12 11 10 9 8 8 9 9 9 9 9 9 9 8 7 7 6 6 6 5 4 3 4 5 5 5 6 6 6 6 6 6 6 5 4 4 5 5 5 5 5 5 4 4 4 4 3 4 4 2 1 2
12 11 11 9 8 8 7 8 9 11 17 19 20 20 21 21 22 28 33 32 31 30 27 23 22 23 22 20 18 17 15 14 13 12 11 9 9 7 6 5 5 6 7 6 6 7 7 7 6 6 5 5 4 4 3 3 3 3 3 5 5 6 6 6 6 5 5 4 4 5 5 5 5 5 4 4 4 4 4 3 3 3 3 4 3
15 14 13 11 10 10 9 11 11 9 8 10 11 12 15 18 19 25 32 32 28 27 26 23 21 20 19 18 18 17 16 15 12 11 10 10 9 8 7 5 4 3 4 3 3 3 4 4 4 4 4 4 3 3 2 2 3 3 3 3 4 4 5 5 5 5 5 4 4 4 4 5 5 4 3 4 4 4 5 5 4 4 3 3 4
14 14 14 12 12 11 9 10 10 9 7 7 7 8 11 13 12 18 28 30 26 25 26 25 23 19 18 18 18 16 14 14 13 10 9 9 9 9 8 7 6 4 3 2 1 1 2 2 3 3 3 3 3 3 2 2 2 2 2 2 2 3 3 3 3 4 3 3 4 3 3 4 5 4 4 4 4 4 5 7 6 6 5 4 4
12 13 13 12 12 12 10 10 10 10 8 7 7 7 8 9 8 12 19 23 23 22 23 25 24 20 18 18 18 15 11 11 13 11 9 9 9 9 9 8 8 7 6 5 5 5 4 4 5 5 5 5 5 5 4 4 4 3 2 2 1 0 1 1 2 2 2 1 2 2 2 3 4 4 5 5 4 3 4 4 4 4 5 5 5
10 11 11 11 12 11 12 11 10 10 9 8 8 7 7 8 10 10 11 16 19 20 21 23 22 20 20 19 17 14 11 10 11 11 10 10 9 9 9 8 7 7 7 6 7 8 8 8 7 7 7 6 7 8 7 7 7 6 6 5 4 3 3 2 1 1 0 0 1 0 1 1 1 3 4 5 5 4 3 2 3 3 3 4 6
10 11 10 10 11 10 11 11 10 10 9 8 9 8 6 6 8 7 8 12 17 18 17 19 21 20 21 21 19 17 15 14 13 11 10 10 10 10 10 9 8 8 8 7 8 10 10 11 11 10 9 8 7 8 8 9 10 10 9 9 7 6 6 6 4 4 3 3 4 4 3 2 2 2 3 3 3 2 2 2 3 3 2 4 6
12 12 11 10 10 9 10 11 10 10 9 8 9 8 6 6 7 8 10 13 18 19 18 19 21 20 21 22 21 19 18 16 14 12 11 12 11 11 12 11 11 11 9 8 8 8 10 11 13 13 12 12 11 10 10 10 11 12 11 12 12 10 9 10 8 7 7 6 5 5 6 6 5 4 4 4 3 2 1 1 2 3 4 5 7
14 12 11 11 10 9 10 11 10 9 8 8 9 8 8 8 8 9 12 15 18 20 20 22 23 21 20 21 18 17 18 17 15 13 13 14 14 14 14 14 14 14 14 12 10 9 9 11 13 14 13 14 13 12 12 12 12 13 13 14 14 13 12 12 12 10 10 10 8 7 7 8 8 7 7 7 6 5 4 4 4 4 5 6 7
13 12 11 12 12 11 11 11 10 9 8 8 8 9 10 10 9 9 12 15 16 17 18 21 21 19 19 17 15 18 21 19 17 17 17 19 19 17 16 16 15 17 17 15 13 12 12 14 15 15 14 14 15 15 15 15 15 15 15 15 15 14 13 14 14 12 12 13 11 9 9 10 10 10 10 10 9 8 7 7 7 7 7 7 7
13 12 12 13 11 9 10 11 10 9 9 9 9 8 9 10 10 10 12 13 14 15 16 18 18 17 17 15 16 20 21 18 17 19 21 22 23 22 21 20 18 20 22 20 16 14 15 17 18 17 16 15 16 17 18 19 17 16 17 18 18 16 15 15 16 14 14 14 13 11 11 11 11 11 11 12 11 10 9 9 9 9 9 9 9
13 12 13 14 13 11 10 10 10 10 9 9 9 9 9 9 9 10 11 11 12 14 16 17 18 17 16 16 16 18 19 17 17 19 20 19 20 21 20 17 18 22 25 23 19 16 16 18 19 19 21 21 20 20 22 23 21 19 18 19 20 19 17 17 17 16 16 15 14 13 13 12 12 12 12 12 12 12 11 11 12 12 11 11 12
13 12 13 14 15 14 12 11 12 11 10 8 7 8 9 8 8 9 9 9 10 12 13 14 15 14 13 14 14 15 16 16 15 16 15 12 12 14 13 13 17 21 22 19 17 17 18 19 19 19 23 25 25 24 24 25 25 22 20 20 21 22 21 21 20 18 17 17 15 15 15 14 13 12 12 13 13 13 13 13 13 14 13 13 13
15 12 12 13 14 14 13 13 14 13 12 10 8 7 7 8 9 9 9 8 8 9 10 10 9 8 7 8 9 9 9 9 9 9 9 8 8 9 10 13 16 18 17 15 15 16 17 19 19 19 22 25 26 26 26 27 27 25 23 22 23 25 25 24 23 21 20 19 17 16 16 15 14 14 14 14 14 13 13 14 14 14 14 14 14
15 16 16 14 14 13 11 10 10 10 9 7 6 6 5 5 7 8 8 8 9 9 9 9 8 8 7 6 6 6 5 5 4 3 4 5 6 5 7 8 9 10 10 10 11 12 13 14 16 18 20 22 23 23 24 27 28 28 27 26 25 25 27 28 26 23 22 21 19 17 16 16 16 16 16 16 14 14 14 15 15 15 15 15 15
11 16 19 16 15 14 11 9 9 9 9 7 6 7 6 4 5 5 5 7 8 9 9 9 8 6 6 7 7 6 5 4 3 2 2 1 1 2 3 4 4 5 6 7 8 9 10 11 13 15 16 18 18 18 19 21 24 26 28 29 28 27 27 29 28 26 25 23 20 18 17 16 17 17 17 16 16 15 16 16 16 16 15 15 16
18 18 20 19 17 16 15 13 10 9 11 10 7 7 8 6 5 5 7 7 5 5 8 9 7 6 6 7 6 5 4 3 2 1 1 1 1 1 2 3 4 5 6 8 9 9 10 11 12 13 14 14 15 15 16 18 20 23 26 29 30 29 28 30 30 28 27 24 21 19 17 17 18 18 18 17 17 17 18 18 18 17 17 18 19
19 22 22 20 20 20 18 15 11 8 9 9 5 7 11 10 8 7 7 5 2 3 5 5 5 5 5 5 5 5 4 4 3 4 5 6 6 6 5 5 5 7 8 10 10 10 11 13 14 13 13 13 14 14 15 16 18 20 22 25 29 30 29 31 31 29 28 24 20 19 18 17 18 18 18 18 19 20 20 19 19 19 20 21 22
5 15 18 18 20 21 19 16 13 10 11 9 4 4 7 8 7 6 6 4 3 3 4 4 5 6 5 5 5 6 6 6 7 8 9 10 10 10 10 9 9 9 9 10 11 12 12 14 16 16 15 14 14 14 15 16 17 19 21 24 27 28 28 29 30 28 26 23 20 18 18 18 18 18 18 19 20 21 20 19 19 19 21 22 23
12 10 12 15 18 18 18 16 13 12 12 9 2 1 4 4 3 5 6 6 6 6 5 6 6 5 6 6 6 5 7 8 9 9 9 8 7 7 8 9 10 11 11 11 11 12 13 14 16 17 16 15 14 15 16 17 18 19 19 20 23 25 27 28 27 24 22 20 18 18 17 17 17 18 19 20 20 20 20 20 20 21 22 23 24
12 12 12 12 12 11 10 9 7 7 9 8 3 2 2 5 4 4 5 6 7 6 6 6 6 6 6 6 5 6 7 8 8 9 7 6 5 4 5 6 7 9 10 11 11 12 13 14 15 15 15 15 15 16 17 17 18 18 17 17 20 25 28 28 24 21 21 20 18 18 17 17 18 18 19 19 18 18 18 20 21 22 24 25 26
11 9 8 6 5 4 3 2 2 1 3 7 7 3 2 3 5 6 6 6 7 7 7 8 8 9 8 6 6 7 9 9 10 9 8 6 6 6 6 6 6 7 9 10 11 12 14 15 16 16 16 16 16 16 16 16 16 16 16 17 20 24 25 24 21 20 21 19 18 17 17 18 19 19 19 18 18 18 19 21 23 24 26 27 28
13 10 6 5 3 2 3 4 3 1 1 4 7 6 4 4 6 7 8 9 9 8 8 9 10 9 8 7 8 9 10 10 11 10 10 11 11 11 10 8 7 7 8 10 11 13 14 15 16 18 18 18 17 17 16 15 15 15 16 18 21 22 22 20 18 18 18 16 16 17 19 20 20 19 18 18 18 20 21 23 25 26 28 28 29
12 10 9 9 7 6 4 5 6 7 7 7 7 6 7 9 10 10 11 11 11 11 11 11 11 10 10 10 11 10 10 11 12 13 14 15 14 13 13 11 9 9 9 10 12 14 16 17 18 18 19 18 18 17 17 16 15 15 16 18 20 21 20 18 18 17 15 15 17 19 19 19 17 16 17 18 20 22 24 25 26 28 29 30 30
13 12 13 12 9 8 9 9 8 8 8 8 8 9 9 10 11 12 13 14 14 15 14 15 15 14 14 14 14 14 14 14 15 15 16 16 16 15 15 15 13 12 10 12 14 16 17 18 19 19 19 19 19 18 17 15 14 15 16 18 20 21 20 19 18 18 17 17 18 19 18 17 17 17 19 21 23 24 25 26 27 29 31 32 33
16 16 17 16 15 14 13 12 12 10 8 8 10 12 12 13 14 16 17 17 17 18 18 18 18 18 17 17 16 15 15 14 14 14 14 14 16 17 18 18 17 15 12 14 16 17 18 19 19 19 20 20 19 18 16 14 12 14 16 19 20 20 19 19 19 18 17 17 18 18 18 18 20 21 23 24 24 25 26 27 29 31 32 33 34
18 19 19 19 19 18 17 16 16 13 12 12 13 15 16 17 17 17 17 16 17 18 18 18 18 17 17 17 16 16 16 16 16 15 15 16 19 20 21 21 19 16 14 15 17 18 19 20 21 20 20 19 18 17 14 11 11 13 16 19 20 19 19 19 18 18 17 17 18 20 21 22 24 24 24 24 25 26 27 29 30 30 30 30 29
19 20 21 21 22 22 21 20 19 16 14 15 16 18 19 19 18 17 17 18 19 19 18 18 18 18 18 18 17 17 16 17 17 17 18 20 21 22 22 21 18 14 14 17 18 18 19 20 20 20 18 16 15 14 12 10 11 13 15 17 18 19 19 19 19 18 18 18 20 22 23 24 24 23 23 23 25 26 27 27 26 25 25 24 23
20 20 21 22 25 26 26 25 23 21 19 18 18 19 21 21 19 17 17 19 20 21 20 19 19 19 19 19 19 19 20 20 20 21 21 22 22 22 22 20 16 13 14 17 18 18 19 19 18 16 14 13 12 11 11 11 12 13 15 17 19 19 19 19 19 19 19 20 22 23 23 22 21 20 21 22 22 22 21 21 20 20 20 19 19
25 24 22 23 25 25 25 25 26 26 25 25 24 23 22 21 19 17 17 17 18 19 20 20 20 20 21 20 20 21 21 21 20 19 20 21 21 21 20 19 16 15 15 17 18 18 18 18 17 15 13 12 11 11 12 14 14 15 16 18 18 18 18 18 18 19 20 20 20 18 17 17 16 16 17 17 16 15 16 16 17 17 18 18 19
26 27 26 26 27 26 24 23 22 20 19 20 19 18 17 16 16 17 16 15 15 15 17 19 19 20 20 22 23 22 20 19 19 18 19 21 21 20 20 19 19 17 16 17 17 17 18 18 18 16 14 12 11 13 15 16 16 16 16 16 16 17 17 17 18 18 18 16 15 13 13 13 12 12 12 13 13 13 14 15 15 16 17 19 20
26 27 28 29 29 28 27 25 23 20 17 16 16 16 15 16 17 18 19 19 18 18 17 17 18 19 19 18 19 20 20 20 20 21 21 20 19 19 18 18 18 16 16 17 17 17 17 17 17 16 13 12 12 16 17 17 16 16 15 15 15 15 15 15 14 13 12 11 11 11 11 10 10 10 11 12 13 14 15 16 17 18 19 21 22
27 28 29 30 29 27 25 24 24 23 23 22 22 22 22 22 22 22 23 25 24 22 20 19 19 21 22 21 20 21 21 21 22 23 22 19 16 15 15 16 16 16 17 17 17 16 15 16 17 15 13 12 16 19 18 16 16 14 14 14 13 12 11 10 9 9 9 9 9 9 9 9 10 10 11 13 15 17 18 19 20 21 21 21 21
26 26 26 27 28 27 26 25 24 23 24 25 26 27 27 27 26 26 27 28 28 27 26 24 21 21 23 25 25 24 25 25 25 24 23 20 18 17 18 19 20 19 17 16 16 15 14 15 16 15 13 14 19 20 17 15 14 12 11 10 8 7 7 7 8 9 10 9 8 8 9 10 11 12 14 15 17 18 19 19 19 20 20 20 21
23 23 23 24 25 26 26 26 25 23 22 23 24 25 27 28 29 28 28 29 30 30 30 29 26 23 22 23 23 22 23 26 26 23 22 22 21 21 21 21 20 17 15 15 15 14 13 14 16 14 12 13 17 18 15 13 11 8 6 6 5 5 6 6 7 7 7 7 7 8 8 9 12 15 16 16 16 16 17 18 19 20 20 22 23
22 23 24 25 25 24 24 24 24 23 22 22 22 23 24 25 26 26 25 25 27 28 29 29 28 26 24 22 21 21 21 23 22 21 22 23 22 20 20 19 18 17 16 15 14 13 13 14 15 14 13 13 15 15 12 10 7 5 4 5 5 5 3 2 3 3 3 4 5 6 8 12 15 16 16 14 14 15 16 18 19 20 21 22 24
Wind_Direction
169 168 169 168 165 167 170 178 186 192 197 198 193 188 182 174 165 157 152 150 148 148 142 136 135 134 139 147 147 145 157 164 163 165 172 172 164 151 149 153 160 172 175 163 158 148 148 180 213 235 242 241 239 234 232 234 234 228 226 228 230 234 233 229 221 218 223 221 221 231 231 224 220 216 213 216 221 224 225 218 211 211 202 204 238
168 167 172 172 168 172 178 181 185 188 191 194 192 185 182 176 167 161 155 155 156 151 140 132 136 137 140 147 149 152 154 144 141 162 171 167 165 161 157 155 154 161 161 149 151 146 146 165 189 218 220 225 228 229 232 234 234 228 225 230 230 229 233 235 233 228 226 225 228 236 236 229 227 228 223 219 219 218 220 225 225 226 223 213 216
172 171 176 176 173 177 180 180 184 189 188 190 192 186 183 181 173 169 164 163 162 153 150 148 147 148 152 154 155 158 155 140 115 129 139 140 150 157 150 143 139 142 151 154 149 140 154 180 194 201 199 208 213 217 230 235 236 227 222 229 230 229 233 234 235 231 229 229 229 231 232 231 236 244 242 235 231 223 218 227 233 231 232 230 227
176 176 178 178 177 178 182 182 181 186 187 189 194 190 186 185 181 177 173 169 165 159 164 166 158 158 163 159 156 154 145 139 120 117 115 111 121 136 139 136 131 128 141 157 155 147 154 175 198 205 184 168 163 160 175 198 217 216 220 228 228 226 228 230 230 230 230 227 222 223 225 227 235 239 237 237 239 234 229 233 235 232 234 236 237
178 177 178 179 179 179 183 185 185 187 189 190 196 195 191 189 185 183 181 177 172 170 173 172 166 166 169 164 163 162 151 146 138 122 112 106 108 117 129 138 143 142 143 146 147 149 145 130 129 144 148 137 125 123 123 114 118 152 197 223 228 226 223 221 221 223 228 224 211 203 204 210 218 218 222 229 232 232 231 234 235 236 237 236 239
181 179 177 180 181 181 185 189 191 192 192 191 197 200 198 194 189 188 189 184 182 181 178 176 174 173 176 173 170 167 158 150 138 121 111 108 105 107 113 122 139 150 154 148 144 147 143 127 114 110 134 148 135 131 125 114 114 114 117 143 191 208 210 211 209 209 217 218 210 202 192 182 188 196 207 220 224 220 215 221 234 241 244 240 235
180 181 179 181 184 185 188 193 195 196 194 191 194 201 204 202 194 192 195 194 191 188 181 179 178 176 176 171 164 160 153 144 133 121 113 111 111 111 108 107 113 121 137 147 147 144 142 134 120 115 136 154 145 144 138 123 123 118 108 98 94 139 171 187 196 196 199 202 204 205 200 173 159 181 203 210 220 215 210 221 236 243 259 263 249
177 179 181 184 187 190 193 195 198 200 197 192 192 198 206 209 203 197 199 201 198 191 184 182 178 172 169 166 161 155 147 138 132 128 124 124 117 105 97 96 100 100 111 136 150 152 146 135 131 134 141 147 150 155 154 141 143 142 121 81 68 107 137 146 151 155 162 170 179 193 197 180 166 187 207 224 238 236 230 233 257 272 276 280 274
179 180 185 190 194 197 199 201 203 203 201 198 196 197 202 208 207 205 206 207 205 198 189 184 180 172 164 161 157 150 145 140 138 136 133 127 112 100 93 90 93 94 93 104 131 152 154 143 139 145 145 151 173 185 184 180 190 215 242 274 47 121 130 133 131 126 132 140 141 151 160 155 150 148 153 192 217 220 184 139 67 346 317 315 300
185 185 187 194 201 203 204 206 208 208 206 205 202 200 200 201 203 208 216 215 209 203 196 188 183 175 164 158 154 152 151 146 143 140 131 120 108 103 102 96 91 90 89 86 94 122 147 154 157 161 155 141 143 156 161 160 168 188 217 227 203 165 143 136 130 125 131 141 145 150 154 156 154 147 149 167 179 174 163 143 94 358 18 28 12
184 189 189 194 200 204 207 207 209 211 211 212 210 206 203 201 201 208 221 222 213 206 201 193 187 179 166 160 160 157 156 153 148 142 132 122 114 108 105 103 99 95 95 95 91 96 115 135 148 145 123 113 111 112 113 112 115 119 112 114 141 157 155 155 151 146 151 156 159 160 159 160 161 161 166 174 184 191 185 185 208 228 39 62 91
154 172 186 195 198 203 208 209 211 212 213 217 217 214 208 205 205 209 219 222 215 207 204 197 190 182 169 166 170 165 160 158 151 142 134 126 117 110 108 106 105 104 103 102 101 101 104 112 117 111 104 102 98 97 98 95 93 92 90 92 103 120 133 141 151 163 173 176 176 178 177 174 177 189 201 210 219 226 227 227 236 246 245 210 111
115 127 152 177 190 203 212 215 216 215 216 220 221 219 214 210 209 209 213 220 217 208 205 202 192 183 175 171 175 172 163 158 153 145 138 128 118 113 111 106 102 103 103 104 105 105 107 109 108 106 103 98 92 91 94 92 86 81 80 80 85 93 98 101 98 101 135 169 178 181 180 176 186 203 215 225 229 233 240 244 253 262 258 251 228
105 114 133 152 163 189 212 221 222 220 220 221 221 219 215 213 211 204 203 215 219 210 204 203 195 184 179 176 178 174 164 158 157 152 141 132 122 117 115 110 103 99 98 100 102 104 107 109 109 108 105 100 94 90 92 91 85 79 79 78 80 85 87 90 92 90 98 121 142 146 138 137 149 179 204 220 225 234 247 252 248 248 252 252 219
91 98 132 175 169 150 179 209 218 220 220 219 218 215 214 214 212 205 200 208 218 214 205 202 195 185 181 182 183 177 166 162 162 159 150 140 131 123 119 115 109 105 100 96 96 98 101 103 107 109 107 105 100 91 86 83 79 76 79 81 82 85 90 94 99 104 109 113 101 86 93 104 92 74 68 66 64 46 325 322 297 255 232 225 189
85 86 97 150 171 148 145 170 195 211 214 213 210 209 213 214 210 207 203 205 215 215 204 199 195 186 183 186 188 183 174 170 169 168 163 152 142 134 124 117 112 111 107 99 96 94 92 93 96 101 105 109 105 99 88 74 75 75 71 75 81 85 90 90 93 103 111 112 104 102 105 102 91 83 77 68 62 57 50 30 2 353 344 310 189
101 103 100 112 136 133 115 114 138 181 200 205 206 207 216 218 215 212 207 205 210 206 195 194 193 186 185 190 193 189 183 181 177 172 170 165 156 148 143 138 125 119 114 104 97 94 89 85 85 85 90 94 97 100 100 81 80 77 64 68 73 79 84 83 83 92 96 92 91 98 103 97 91 96 97 85 76 76 74 67 41 23 7 359 358
109 115 114 116 132 137 126 124 130 140 160 183 196 203 209 212 216 214 206 202 202 196 189 191 191 187 191 199 202 196 189 187 183 172 172 177 173 168 173 178 176 155 135 120 99 84 75 76 77 71 69 67 64 70 72 61 66 68 63 62 59 60 68 74 79 84 83 80 81 83 84 80 74 77 96 95 89 84 71 60 52 40 27 8 354
115 117 122 123 129 139 145 147 148 147 154 172 185 194 199 201 207 205 200 198 197 194 191 190 190 194 201 208 211 204 193 188 184 179 182 190 192 189 191 199 212 224 224 231 265 337 360 9 16 17 24 20 7 20 20 8 22 40 51 58 59 67 73 77 81 83 81 70 73 81 73 66 58 47 51 64 76 90 80 62 52 41 35 26 360
129 123 126 129 130 135 141 147 156 161 169 179 188 202 203 199 203 197 195 195 191 192 195 191 190 193 197 206 211 206 193 183 182 188 196 201 205 203 203 208 217 232 247 264 281 293 299 308 318 322 324 327 325 325 323 319 321 324 332 338 316 24 57 82 97 96 99 89 82 93 69 48 41 34 32 32 32 60 87 72 55 45 32 15 356
142 138 138 140 136 134 137 147 160 165 171 177 186 201 203 199 207 208 203 197 187 188 196 193 187 185 188 197 201 198 192 183 182 192 196 194 199 203 205 208 216 233 248 264 283 295 297 296 296 300 303 304 307 310 309 307 305 303 301 294 277 272 299 306 232 206 358 317 290 310 83 53 15 8 16 19 18 24 37 29 18 25 14 346 334
128 129 140 150 146 143 142 145 155 164 169 175 183 195 202 198 200 194 191 192 185 180 182 184 182 180 185 191 193 193 193 188 185 188 185 184 191 197 198 199 204 219 234 251 273 289 295 296 295 296 296 295 297 299 300 302 302 299 296 293 284 271 280 290 279 275 297 294 287 304 319 322 331 339 344 349 1 18 5 342 339 328 300 291 292
124 120 128 141 147 158 159 151 153 161 164 168 178 184 178 170 168 158 157 166 172 170 167 174 181 181 184 189 189 191 196 194 192 196 197 196 199 203 206 207 206 208 217 232 253 275 289 294 296 296 296 297 297 296 297 299 299 296 292 291 289 282 276 279 281 281 286 284 272 282 304 314 319 320 319 322 326 336 336 314 310 300 287 284 288
127 126 129 129 127 137 155 162 163 165 164 162 169 174 166 157 151 150 153 157 165 170 171 178 184 184 185 188 188 196 203 199 196 204 213 215 217 222 224 223 222 222 223 226 231 244 261 274 283 286 285 287 287 289 293 295 295 294 289 285 286 284 277 275 278 279 280 284 277 273 291 305 313 319 320 324 324 323 328 326 321 318 311 310 311
134 135 129 120 109 108 126 148 161 170 173 166 164 168 165 159 153 150 152 156 165 173 177 184 191 191 190 190 196 209 214 213 215 220 224 225 226 230 233 232 236 238 236 235 235 238 247 257 265 268 268 271 275 276 277 280 283 285 285 283 281 280 276 274 277 277 275 277 279 280 291 302 311 317 318 320 321 321 321 319 315 314 311 312 314
142 146 144 137 126 114 111 117 128 145 163 174 179 179 172 168 167 162 160 163 169 175 180 185 189 189 192 197 204 213 220 227 233 231 229 229 230 234 239 242 247 251 251 254 255 251 254 261 263 260 255 255 256 258 261 262 263 268 273 275 274 273 273 272 273 273 269 271 276 280 287 296 303 310 314 316 318 316 312 307 307 310 313 315 317
148 142 142 140 136 136 127 114 113 120 135 159 177 186 194 196 193 187 184 183 181 183 187 190 192 196 209 219 218 218 223 230 234 233 232 235 237 240 242 242 246 253 256 258 258 254 257 261 260 256 252 249 246 250 256 260 259 258 258 263 268 266 264 266 267 266 265 266 269 273 281 288 293 302 310 312 311 309 306 305 307 310 314 316 317
156 146 142 137 129 132 136 133 131 126 123 132 152 169 178 181 187 194 198 201 201 199 201 204 207 214 221 222 214 209 212 216 221 224 221 221 228 233 236 240 247 254 258 258 258 257 252 248 247 249 250 249 247 247 251 256 260 259 253 254 261 262 261 262 260 257 260 263 265 270 278 283 289 296 301 301 302 302 301 303 305 307 309 312 313
165 160 158 151 138 130 126 130 135 134 132 130 131 149 159 155 162 174 180 186 189 191 195 195 194 195 195 196 197 200 207 212 220 231 234 234 238 238 239 245 249 254 258 258 259 258 250 243 244 247 249 249 250 251 252 251 254 259 257 251 252 255 258 258 254 251 254 259 264 271 278 283 287 290 293 295 296 296 298 299 300 302 305 308 310
172 175 175 169 161 150 130 121 126 131 140 146 146 156 160 147 145 150 156 161 161 159 161 165 169 172 172 171 174 180 188 198 212 242 260 250 246 239 235 238 243 248 252 253 255 257 256 255 255 254 255 257 258 260 257 252 251 256 257 251 248 252 253 251 248 248 250 255 261 268 274 278 282 286 290 291 292 294 298 299 299 300 302 306 308
179 174 173 172 170 166 156 143 140 142 145 146 156 169 168 145 131 135 144 155 160 159 156 164 174 175 169 164 162 161 160 158 149 121 105 132 188 226 234 233 233 243 253 259 266 271 273 273 268 263 261 262 262 262 261 260 258 258 256 251 248 250 250 246 245 247 251 255 259 263 266 271 278 284 285 286 291 297 300 300 299 299 300 302 303
205 182 172 175 172 166 165 164 159 154 149 146 149 165 171 159 139 150 168 177 184 171 166 176 184 177 169 169 171 176 169 152 146 148 167 195 205 222 257 265 263 268 274 273 274 279 283 283 278 272 266 263 263 265 268 270 267 262 258 252 246 246 247 246 245 247 251 253 255 257 261 268 279 284 284 287 295 300 300 298 297 300 302 303 305
211 186 170 169 165 161 164 169 168 159 161 171 165 150 164 171 166 169 183 202 217 167 169 186 181 164 161 167 172 178 175 170 189 209 215 217 219 222 228 242 259 269 273 273 273 274 280 284 282 278 274 269 267 267 267 269 268 262 255 248 245 247 250 249 246 245 247 249 252 254 259 271 279 281 281 287 295 298 296 294 297 301 303 305 308
151 174 165 157 153 155 160 165 169 163 162 171 154 122 166 185 192 204 211 206 195 188 202 211 191 175 182 195 193 182 180 193 209 219 224 228 232 232 229 229 236 242 251 261 267 270 274 278 279 281 281 277 271 268 267 267 265 261 254 250 249 249 248 245 241 240 242 245 250 256 264 272 276 277 281 288 293 295 293 292 294 297 300 303 305
78 122 143 149 152 157 161 165 174 178 175 177 163 341 260 237 226 241 238 222 213 211 215 227 227 216 211 215 215 204 201 212 221 227 234 238 238 236 234 234 236 240 245 251 258 263 266 270 274 277 278 277 272 269 269 267 265 265 263 257 251 246 238 231 228 231 239 245 249 255 260 263 267 275 284 288 291 292 291 291 293 295 299 301 301
69 88 99 118 133 143 153 163 181 195 198 200 176 112 221 223 219 228 230 240 249 232 215 230 244 242 238 235 230 226 230 240 247 252 258 257 250 251 255 257 257 252 249 251 256 260 261 263 270 273 273 275 274 270 271 272 271 273 273 264 254 244 233 224 221 230 242 246 248 251 254 257 266 275 280 282 284 286 286 286 287 290 294 297 298
41 56 66 85 117 134 143 124 73 69 191 215 218 206 209 229 233 231 229 251 269 251 230 240 249 247 249 242 223 227 242 257 268 274 277 274 275 282 283 283 285 273 255 251 255 262 263 262 266 269 271 274 276 275 276 277 276 276 273 262 251 241 233 229 233 238 241 242 247 253 259 266 271 275 277 280 282 282 279 279 281 285 289 292 295
17 21 22 16 9 321 241 199 173 122 157 236 250 258 279 282 263 252 249 252 254 247 247 256 251 240 236 231 229 238 247 255 264 271 274 278 281 283 285 290 295 290 273 258 255 261 265 262 260 263 265 268 272 274 275 275 272 268 263 255 247 242 240 240 240 237 238 244 253 260 267 271 274 276 279 282 281 279 278 280 283 287 289 290 293
354 1 358 355 358 349 305 256 245 249 251 266 285 286 280 275 266 260 261 259 255 251 255 259 249 233 229 233 236 237 237 242 254 263 272 278 280 281 284 290 296 296 284 263 253 256 261 261 260 261 263 264 265 267 270 271 267 263 258 253 249 245 240 235 233 235 240 247 256 261 263 264 266 271 274 275 275 277 279 282 284 286 287 289 292
334 333 330 328 326 326 320 308 300 287 267 270 290 292 280 273 269 267 267 266 261 256 254 254 250 247 247 245 241 241 244 250 259 266 273 278 280 282 284 287 292 295 284 262 252 253 258 260 260 260 261 262 262 265 268 266 261 258 255 250 246 245 241 238 241 247 248 250 255 255 252 251 256 261 264 268 271 275 278 280 283 285 288 290 292
320 317 317 316 311 309 308 304 304 300 281 273 282 281 277 274 271 268 268 268 266 264 261 259 257 255 254 252 249 251 256 258 260 265 269 271 274 277 279 283 289 292 280 261 254 256 259 260 259 259 259 259 260 263 263 259 251 248 247 244 242 245 249 252 254 254 249 245 247 247 247 254 261 263 266 268 272 275 278 280 283 286 289 291 293
311 308 309 312 311 307 300 295 298 293 281 279 279 275 277 279 273 266 265 267 269 268 265 262 260 257 255 255 256 257 256 255 255 257 258 259 263 269 274 278 284 285 271 259 259 262 262 260 259 258 257 257 258 257 254 254 252 246 243 241 240 244 252 255 254 249 242 239 244 251 258 264 266 268 270 273 276 280 283 285 288 290 292 294 295
308 305 302 303 305 305 301 296 295 289 283 284 284 282 283 283 278 272 270 270 268 266 264 262 260 258 258 259 260 259 257 256 254 254 258 260 262 265 269 274 279 274 259 255 261 265 265 262 258 255 254 253 251 248 246 252 257 252 244 242 242 244 248 248 245 242 242 246 252 259 263 266 269 273 277 280 284 287 289 292 293 295 298 300 303
304 304 303 302 301 299 297 294 291 287 284 284 286 287 286 280 275 277 278 274 268 262 261 260 260 260 261 262 261 261 261 260 260 260 261 262 262 264 266 269 270 262 252 254 261 265 265 262 257 253 251 247 245 245 244 242 246 248 243 239 239 240 241 242 243 246 249 253 257 262 266 271 275 281 284 287 290 293 296 299 302 306 310 312 312
299 296 298 303 305 303 299 294 291 286 283 282 282 283 283 279 274 273 276 276 272 267 263 262 262 265 266 265 267 268 267 266 266 264 262 260 259 261 262 258 255 255 255 256 261 267 267 263 258 253 249 248 250 248 239 232 233 239 237 233 232 236 239 242 246 250 254 258 262 267 273 278 283 287 288 290 292 296 300 305 310 312 312 311 311
297 293 292 294 299 303 303 302 299 291 282 277 273 272 274 275 271 267 266 268 272 274 272 267 265 267 269 269 270 270 267 265 265 265 265 262 257 256 256 250 245 247 253 257 263 268 265 260 255 251 248 253 253 241 233 231 230 229 229 228 231 236 240 244 249 254 259 263 268 274 280 286 289 289 287 288 291 294 299 304 305 305 306 307 306
295 294 293 292 293 297 302 302 298 292 285 275 267 265 267 269 268 267 266 266 268 271 273 272 271 270 270 268 266 264 264 266 267 266 265 260 251 245 243 238 234 239 250 259 265 264 259 256 255 253 255 257 243 226 221 223 222 221 222 229 235 241 245 251 256 259 262 268 277 285 290 291 286 282 285 291 295 298 301 300 297 296 297 297 297
293 291 292 294 294 295 299 298 292 289 288 283 277 273 271 268 266 265 266 266 268 267 267 270 274 274 270 266 263 262 263 266 267 263 254 246 239 236 235 239 248 259 264 265 264 261 259 260 259 258 255 238 218 211 211 213 216 222 227 231 237 240 244 252 260 267 278 287 291 289 283 275 273 277 285 289 290 293 295 294 294 295 296 298 301
293 292 291 292 292 290 291 291 287 283 283 281 278 275 273 270 268 266 265 267 268 268 266 267 270 272 269 266 264 265 264 264 262 255 245 240 243 248 254 264 272 273 269 264 262 261 260 257 253 254 252 229 208 203 206 209 211 216 223 225 230 239 252 270 283 291 297 298 289 273 267 272 284 293 295 293 293 296 299 303 307 311 313 316 318
292 290 286 286 287 288 290 289 286 281 279 278 276 273 272 271 270 268 268 268 268 268 267 266 266 267 267 264 261 261 262 260 255 246 241 245 252 257 264 269 269 263 257 255 257 259 257 253 246 242 239 226 209 200 199 202 203 206 218 232 251 268 278 290 296 295 290 279 265 265 279 299 312 314 310 308 309 313 317 320 323 324 323 321 318
288 288 288 288 289 289 290 287 284 281 277 273 270 267 266 267 267 266 266 266 265 264 264 264 264 264 263 260 255 255 258 256 250 245 247 252 257 260 262 260 254 251 251 253 257 254 246 241 238 222 201 195 199 197 193 196 200 209 232 246 254 255 262 305 343 343 311 281 279 298 318 326 326 322 319 321 324 327 327 324 322 321 319 317 315